GW6616 Weather Reports


Display with metric or nautical units.
time (UTC)temp
F
wind
direction
speed
MPH
gust
MPH
rain 1hr
in
rain 24hr
in
rain mn
in
humidity
%
barometer
mb
20260503215010 60 229 2.0 10.0 0.00 0.00 0.00 58 1009.7
20260503214518 60 315 2.0 9.0 0.00 0.00 0.00 54 1009.8
20260503214007 60 317 2.0 9.0 0.00 0.00 0.00 53 1009.5
20260503213507 60 142 1.0 8.0 0.00 0.00 0.00 59 1009.8
20260503213004 60 94 1.0 7.0 0.00 0.00 0.00 59 1009.7
20260503212508 60 150 1.0 11.0 0.00 0.00 0.00 57 1009.7
20260503212005 60 148 2.0 13.0 0.00 0.00 0.00 55 1009.8
20260503211506 60 144 3.0 13.0 0.00 0.00 0.00 54 1009.7
20260503211004 61 123 2.0 8.0 0.00 0.00 0.00 56 1010.0
20260503210504 60 196 2.0 7.0 0.00 0.00 0.00 55 1010.1
20260503210011 60 96 2.0 5.0 0.00 0.00 0.00 55 1010.3
20260503205506 60 126 2.0 12.0 0.00 0.00 0.00 56 1010.3
20260503205004 60 156 5.0 16.0 0.00 0.00 0.00 54 1010.4
20260503204514 60 46 3.0 16.0 0.00 0.00 0.00 52 1010.7
20260503204007 60 119 3.0 15.0 0.00 0.00 0.00 52 1010.9
20260503203510 61 255 4.0 13.0 0.00 0.00 0.00 54 1011.0
20260503203029 61 184 4.0 15.0 0.00 0.00 0.00 54 1011.0
20260503202508 61 167 3.0 15.0 0.00 0.00 0.00 54 1011.0
20260503202005 61 238 2.0 6.0 0.00 0.00 0.00 53 1011.1
20260503201505 61 64 2.0 15.0 0.00 0.00 0.00 54 1011.2
20260503201004 61 181 2.0 15.0 0.00 0.00 0.00 55 1011.4
20260503200505 61 171 3.0 12.0 0.00 0.00 0.00 51 1011.6
20260503200008 62 19 3.0 12.0 0.00 0.00 0.00 51 1012.1
20260503195505 61 259 2.0 12.0 0.00 0.00 0.00 53 1012.1
20260503195006 61 248 2.0 11.0 0.00 0.00 0.00 56 1012.3
20260503194515 61 281 4.0 14.0 0.00 0.00 0.00 52 1012.6
20260503194008 61 234 2.0 14.0 0.00 0.00 0.00 53 1012.8
20260503193512 60 254 1.0 9.0 0.00 0.00 0.00 53 1013.3
20260503193018 60 217 1.0 10.0 0.00 0.00 0.00 55 1013.4
20260503192506 60 215 3.0 11.0 0.00 0.00 0.00 50 1013.5
20260503192007 60 34 2.0 17.0 0.00 0.00 0.00 55 1013.7
20260503191524 61 109 4.0 17.0 0.00 0.00 0.00 49 1013.7
20260503191004 61 313 3.0 8.0 0.00 0.00 0.00 50 1013.6
20260503190504 60 227 3.0 11.0 0.00 0.00 0.00 51 1013.5
20260503190006 60 217 3.0 13.0 0.00 0.00 0.00 51 1013.6
20260503185505 60 336 4.0 13.0 0.00 0.00 0.00 48 1013.5
20260503185007 60 244 2.0 14.0 0.00 0.00 0.00 49 1013.6
20260503184517 60 162 4.0 14.0 0.00 0.00 0.00 51 1013.7
20260503184007 61 309 5.0 10.0 0.00 0.00 0.00 49 1013.7
20260503183505 61 181 2.0 16.0 0.00 0.00 0.00 46 1013.5
20260503183021 61 140 4.0 16.0 0.00 0.00 0.00 52 1013.5
20260503182507 62 219 3.0 14.0 0.00 0.00 0.00 54 1013.6
20260503182008 61 9 5.0 13.0 0.00 0.00 0.00 45 1013.7
20260503181521 61 289 6.0 13.0 0.00 0.00 0.00 48 1014.0
20260503181007 61 320 2.0 13.0 0.00 0.00 0.00 49 1013.9
20260503180509 62 270 3.0 10.0 0.00 0.00 0.00 51 1014.3
20260503180006 61 116 3.0 10.0 0.00 0.00 0.00 49 1014.1
20260503175504 62 105 3.0 10.0 0.00 0.00 0.00 53 1014.2
20260503175004 62 174 4.0 10.0 0.00 0.00 0.00 49 1014.4
20260503174508 61 45 4.0 13.0 0.00 0.00 0.00 50 1014.6
20260503174004 61 50 3.0 13.0 0.00 0.00 0.00 52 1014.7
20260503173505 61 240 3.0 8.0 0.00 0.00 0.00 54 1015.0
20260503173014 60 227 3.0 11.0 0.00 0.00 0.00 54 1015.2
20260503172506 61 168 4.0 13.0 0.00 0.00 0.00 51 1015.1
20260503172006 61 265 4.0 14.0 0.00 0.00 0.00 56 1015.2
20260503171518 61 315 3.0 14.0 0.00 0.00 0.00 55 1015.4
20260503171009 61 293 4.0 12.0 0.00 0.00 0.00 52 1015.5
20260503170509 61 252 4.0 11.0 0.00 0.00 0.00 52 1015.6
20260503151008 57 261 5.0 14.0 0.00 0.00 0.00 54 1016.9
20260503150506 57 65 4.0 10.0 0.00 0.00 0.00 59 1017.1
20260503131007 48 217 3.0 8.0 0.00 0.00 0.00 70 1017.4
20260503130506 48 302 1.0 6.0 0.00 0.00 0.00 73 1017.3
20260503110510 39 29 0.0 0.0 0.00 0.00 0.00 78 1017.0
20260503090505 38 338 0.0 0.0 0.00 0.00 0.00 79 1017.0
20260503081503 38 338 0.0 0.0 0.00 0.00 0.00 83 1017.0
20260503081003 38 338 0.0 0.0 0.00 0.00 0.00 84 1017.0
20260503080504 38 338 0.0 0.0 0.00 0.00 0.00 86 1017.0
20260503072506 38 338 0.0 0.0 0.00 0.00 0.00 88 1017.0
20260503072008 38 338 0.0 0.0 0.00 0.00 0.00 88 1017.0
20260503071519 38 338 0.0 0.0 0.00 0.00 0.00 89 1017.1
20260503071008 38 338 0.0 0.0 0.00 0.00 0.00 88 1017.1
20260503070506 38 338 0.0 0.0 0.00 0.00 0.00 88 1017.1
20260503055007 39 338 0.0 0.0 0.00 0.00 0.00 81 1017.4
20260503054516 39 338 0.0 0.0 0.00 0.00 0.00 81 1017.4
20260503054005 39 338 0.0 0.0 0.00 0.00 0.00 81 1017.4
20260503053504 39 338 0.0 0.0 0.00 0.00 0.00 82 1017.5
20260503053006 39 338 0.0 0.0 0.00 0.00 0.00 85 1017.5
20260503052504 38 338 0.0 0.0 0.00 0.00 0.00 84 1017.6
20260503052007 39 338 0.0 0.0 0.00 0.00 0.00 84 1017.6
20260503051512 39 338 0.0 0.0 0.00 0.00 0.00 84 1017.6
20260503051006 39 338 0.0 0.0 0.00 0.00 0.00 85 1017.5
20260503050511 39 338 0.0 0.0 0.00 0.00 0.00 86 1017.5
20260503050016 39 338 0.0 0.0 0.00 0.00 0.00 85 1017.5
20260503045508 39 338 0.0 0.0 0.00 0.00 0.00 85 1017.5
20260503045011 40 338 0.0 0.0 0.00 0.00 0.00 85 1017.6
20260503044541 40 338 0.0 0.0 0.00 0.00 0.00 85 1017.6
20260503044011 40 338 0.0 0.0 0.00 0.00 0.00 85 1017.6
20260503043503 40 338 0.0 0.0 0.00 0.00 0.00 85 1017.6
20260503043005 40 338 0.0 0.0 0.00 0.00 0.00 85 1017.7
20260503042504 40 338 0.0 0.0 0.00 0.00 0.00 84 1017.6
20260503042007 40 338 0.0 0.0 0.00 0.00 0.00 84 1017.6
20260503041510 40 338 0.0 0.0 0.00 0.00 0.00 83 1017.6
20260503041005 40 338 0.0 0.0 0.00 0.00 0.00 82 1017.7
20260503040506 40 338 0.0 0.0 0.00 0.00 0.00 79 1017.7
20260503040013 40 338 0.0 0.0 0.00 0.00 0.00 78 1017.8
20260503035508 41 338 0.0 0.0 0.00 0.00 0.00 80 1017.8
20260503035007 41 338 0.0 0.0 0.00 0.00 0.00 78 1017.7
20260503034520 41 338 0.0 0.0 0.00 0.00 0.00 78 1017.7
20260503034008 41 338 0.0 0.0 0.00 0.00 0.00 77 1017.7
20260503033512 41 338 0.0 0.0 0.00 0.00 0.00 75 1017.8
20260503033024 41 338 0.0 0.0 0.00 0.00 0.00 77 1017.8
20260503032507 41 338 0.0 0.0 0.00 0.00 0.00 79 1017.7
20260503032005 41 338 0.0 0.0 0.00 0.00 0.00 76 1017.7
20260503031508 41 338 0.0 0.0 0.00 0.00 0.00 75 1017.7
20260503031006 41 338 0.0 0.0 0.00 0.00 0.00 76 1017.7
20260503030505 41 338 0.0 0.0 0.00 0.00 0.00 75 1017.7
20260503030013 41 338 0.0 0.0 0.00 0.00 0.00 75 1017.7
20260503025505 42 338 0.0 0.0 0.00 0.00 0.00 73 1017.7
20260503025006 42 338 0.0 0.0 0.00 0.00 0.00 72 1017.7
20260503024518 42 338 0.0 0.0 0.00 0.00 0.00 72 1017.7
20260503024011 42 338 0.0 0.0 0.00 0.00 0.00 70 1017.7
20260503023506 42 338 0.0 0.0 0.00 0.00 0.00 68 1017.7
20260503023022 43 338 0.0 0.0 0.00 0.00 0.00 72 1017.7
20260503022510 43 338 0.0 0.0 0.00 0.00 0.00 70 1017.7
20260503022010 43 338 0.0 0.0 0.00 0.00 0.00 70 1017.6
20260503021524 43 338 0.0 0.0 0.00 0.00 0.00 65 1017.7
20260503021004 43 338 0.0 0.0 0.00 0.00 0.00 64 1017.7
20260503020506 43 338 0.0 0.0 0.00 0.00 0.00 66 1017.6
20260503020008 43 338 0.0 0.0 0.00 0.00 0.00 66 1017.6
20260503015507 43 338 0.0 0.0 0.00 0.00 0.00 64 1017.5
20260503015006 44 338 0.0 0.0 0.00 0.00 0.00 62 1017.4
20260503014514 44 338 0.0 0.0 0.00 0.00 0.00 66 1017.4
20260503014007 44 338 0.0 0.0 0.00 0.00 0.00 67 1017.4
20260503013508 44 338 0.0 0.0 0.00 0.00 0.00 61 1017.4
20260503013020 45 338 0.0 0.0 0.00 0.00 0.00 59 1017.3
20260503012508 45 338 0.0 0.0 0.00 0.00 0.00 58 1017.3
20260503012009 45 338 0.0 0.0 0.00 0.00 0.00 57 1017.2
20260503011525 45 338 0.0 0.0 0.00 0.00 0.00 60 1017.2
20260503011009 45 338 0.0 0.0 0.00 0.00 0.00 60 1017.2
20260503010509 46 338 0.0 0.0 0.00 0.00 0.00 57 1017.2
20260503010008 46 338 0.0 0.0 0.00 0.00 0.00 58 1017.1
20260503005505 47 338 0.0 0.0 0.00 0.00 0.00 53 1017.1
20260503005005 47 338 0.0 0.0 0.00 0.00 0.00 52 1017.1
20260503004537 47 338 0.0 0.0 0.00 0.00 0.00 56 1017.1
20260503004012 48 338 0.0 0.0 0.00 0.00 0.00 52 1017.1
20260503003506 48 338 0.0 0.0 0.00 0.00 0.00 55 1017.1
20260503003016 49 338 0.0 0.0 0.00 0.00 0.00 57 1017.2
20260503002509 49 338 0.0 0.0 0.00 0.00 0.00 55 1017.1
20260503002009 50 338 0.0 0.0 0.00 0.00 0.00 52 1017.1
20260503001522 50 338 0.0 2.0 0.00 0.00 0.00 48 1017.0
20260503001009 51 338 0.0 2.0 0.00 0.00 0.00 47 1017.0
20260503000512 51 338 1.0 2.0 0.00 0.00 0.00 46 1017.1
20260503000041 52 338 0.0 3.0 0.00 0.00 0.00 46 1017.1
20260502235509 52 338 1.0 3.0 0.00 0.00 0.00 45 1017.1
20260502235009 53 253 0.0 3.0 0.00 0.00 0.00 46 1017.1
20260502234513 53 264 1.0 9.0 0.00 0.00 0.00 40 1017.1
20260502234006 53 5 4.0 11.0 0.00 0.00 0.00 39 1017.2
20260502233504 53 320 7.0 11.0 0.00 0.00 0.00 43 1017.2
20260502233015 53 319 3.0 8.0 0.00 0.00 0.00 42 1017.2
20260502232507 53 296 3.0 9.0 0.00 0.00 0.00 41 1017.1
20260502232006 53 344 4.0 9.0 0.00 0.00 0.00 42 1017.1
20260502231520 53 329 6.0 9.0 0.00 0.00 0.00 42 1017.2
20260502231009 53 13 4.0 11.0 0.00 0.00 0.00 38 1017.1
20260502230508 53 323 3.0 11.0 0.00 0.00 0.00 40 1017.0
20260502230025 53 282 5.0 10.0 0.00 0.00 0.00 39 1017.1
20260502225515 53 327 3.0 12.0 0.00 0.00 0.00 41 1017.1
20260502225013 54 313 5.0 12.0 0.00 0.00 0.00 40 1017.2
20260502224528 55 335 6.0 0.0 0.00 0.00 0.00 38 1017.2
20260502224012 54 336 2.0 6.0 0.00 0.00 0.00 38 1017.2
20260502223505 53 316 2.0 8.0 0.00 0.00 0.00 44 1017.0
20260502223025 53 345 3.0 8.0 0.00 0.00 0.00 43 1017.0
20260502222505 53 360 1.0 8.0 0.00 0.00 0.00 41 1017.2
20260502222006 53 338 5.0 10.0 0.00 0.00 0.00 43 1017.2
20260502221521 54 344 3.0 11.0 0.00 0.00 0.00 42 1017.2
20260502221007 54 313 8.0 11.0 0.00 0.00 0.00 39 1017.2
20260502220509 54 305 4.0 11.0 0.00 0.00 0.00 41 1017.3
20260502220023 54 307 6.0 10.0 0.00 0.00 0.00 40 1017.1
20260502215507 54 312 4.0 10.0 0.00 0.00 0.00 42 1017.1